Date String (YYYY-MM-DD hh:mm:ss) UTC,Instrument flags,Ambient pressure (hPa),Sample flow (lpm),Bypass flow (lpm),Sample temperature (°C),Ambient temperature (°C),ASC tube jacket temperature (°C),LED temperature (°C),Box temperature (°C),Sample RH (%),Span deviation,Mass concentration (μg/m³),Mass concentration (μg/m³),Mass concentration (μg/m³)
DateTimeUTC,F1_M11,P_M11,Q1_M11,Q2_M11,T1_M11,T2_M11,T3_M11,T4_M11,T5_M11,U1_M11,ZSPAN_M11,X0_M11,X2_M11,X1_M11
2021-10-29 22:00:00,,0825.6,5.00,0.00,29.9,25.8,00.0,38.9,31.2,09.6,0000.0,0010.83,0001.86,0000.77
2021-10-29 22:01:00,,0825.6,4.99,0.00,29.8,26.0,00.0,38.9,31.2,09.6,0000.0,0010.95,0001.92,0000.78
2021-10-29 22:02:00,,0825.6,5.00,0.00,29.7,26.5,00.0,38.8,31.2,09.7,0000.0,0010.93,0001.91,0000.78
2021-10-29 22:03:00,,0825.6,4.99,0.00,29.7,27.0,00.0,38.8,31.3,09.7,0000.0,0011.08,0001.84,0000.78
2021-10-29 22:04:00,,0825.6,5.01,0.00,29.7,27.4,00.0,38.7,31.4,09.7,0000.0,0010.62,0001.82,0000.78
2021-10-29 22:05:00,,0825.6,4.99,0.00,29.7,27.8,00.0,38.7,31.4,09.8,0000.0,0010.21,0001.72,0000.78
2021-10-29 22:06:00,,0825.6,5.00,0.00,29.7,28.1,00.0,38.7,31.5,09.7,0000.0,0009.61,0001.68,0000.77
2021-10-29 22:07:00,,0825.6,5.01,0.00,29.7,28.4,00.0,38.7,31.6,09.7,0000.0,0009.55,0001.67,0000.77
2021-10-29 22:08:00,,0825.6,5.00,0.00,29.8,28.6,00.0,38.7,31.6,09.7,0000.0,0009.83,0001.68,0000.76
2021-10-29 22:09:00,,0825.6,5.00,0.00,29.8,28.8,00.0,38.8,31.7,09.5,0000.0,0009.65,0001.67,0000.77
2021-10-29 22:10:00,,0825.6,5.01,0.00,29.9,28.9,00.0,38.8,31.8,09.4,0000.0,0008.54,0001.65,0000.75
2021-10-29 22:11:00,,0825.6,5.00,0.00,29.9,29.1,00.0,38.8,31.8,09.4,0000.0,0009.90,0001.60,0000.73
2021-10-29 22:12:00,,0825.6,5.00,0.00,30.0,29.2,00.0,38.8,31.9,09.3,0000.0,0009.94,0001.56,0000.73
2021-10-29 22:13:00,,0825.6,5.00,0.00,30.0,29.3,00.0,38.8,31.9,09.4,0000.0,0009.54,0001.54,0000.71
2021-10-29 22:14:00,,0825.5,5.00,0.00,30.0,29.4,00.0,38.9,32.0,09.3,0000.0,0009.14,0001.53,0000.71
2021-10-29 22:15:00,,0825.5,5.00,0.00,30.1,29.2,00.0,38.9,31.9,09.3,0000.0,0009.18,0001.52,0000.70
2021-10-29 22:16:00,,0825.5,4.99,0.00,30.0,27.2,00.0,38.9,31.6,09.3,0000.0,0008.27,0001.46,0000.69
2021-10-29 22:17:00,,0825.5,5.00,0.00,29.9,26.0,00.0,38.9,31.3,09.4,0000.0,0008.19,0001.41,0000.69
2021-10-29 22:18:00,,0825.5,5.01,0.00,29.8,26.2,00.0,38.8,31.3,09.5,0000.0,0008.17,0001.38,0000.70
2021-10-29 22:19:00,,0825.5,4.99,0.00,29.7,26.6,00.0,38.8,31.3,09.5,0000.0,0007.96,0001.37,0000.70
2021-10-29 22:20:00,,0825.5,5.00,0.00,29.7,27.1,00.0,38.8,31.3,09.6,0000.0,0007.86,0001.40,0000.69
2021-10-29 22:21:00,,0825.5,5.00,0.00,29.7,27.5,00.0,38.7,31.4,09.7,0000.0,0008.01,0001.44,0000.70
2021-10-29 22:22:00,,0825.5,5.00,0.00,29.7,27.9,00.0,38.7,31.4,09.7,0000.0,0006.78,0001.55,0000.71
2021-10-29 22:23:00,,0825.4,5.00,0.00,29.7,28.2,00.0,38.7,31.5,09.7,0000.0,0006.44,0001.59,0000.73
2021-10-29 22:24:00,,0825.4,5.00,0.00,29.8,28.4,00.0,38.7,31.6,09.7,0000.0,0007.69,0001.63,0000.74
2021-10-29 22:25:00,,0825.5,5.00,0.00,29.8,28.6,00.0,38.7,31.6,09.7,0000.0,0008.80,0001.67,0000.76
2021-10-29 22:26:00,,0825.5,4.99,0.00,29.8,28.8,00.0,38.8,31.7,09.6,0000.0,0009.18,0001.69,0000.77
2021-10-29 22:27:00,,0825.5,5.00,0.00,29.9,28.9,00.0,38.8,31.7,09.6,0000.0,0009.12,0001.75,0000.79
2021-10-29 22:28:00,,0825.5,5.00,0.00,29.9,29.1,00.0,38.8,31.8,09.6,0000.0,0009.51,0001.82,0000.81
2021-10-29 22:29:00,,0825.5,5.00,0.00,30.0,29.2,00.0,38.8,31.9,09.6,0000.0,0010.14,0001.89,0000.82
2021-10-29 22:30:00,,0825.5,5.01,0.00,30.0,29.3,00.0,38.8,31.9,09.5,0000.0,0009.92,0001.86,0000.81
2021-10-29 22:31:00,,0825.5,5.00,0.00,30.0,29.1,00.0,38.9,31.9,09.5,0000.0,0009.85,0001.80,0000.81
2021-10-29 22:32:00,,0825.5,5.00,0.00,30.0,27.0,00.0,38.9,31.4,09.5,0000.0,0009.81,0001.77,0000.81
2021-10-29 22:33:00,,0825.5,5.01,0.00,29.8,25.7,00.0,38.8,31.1,09.6,0000.0,0009.47,0001.66,0000.80
2021-10-29 22:34:00,,0825.5,4.99,0.00,29.7,26.0,00.0,38.8,31.2,09.8,0000.0,0009.14,0001.59,0000.79
2021-10-29 22:35:00,,0825.4,5.01,0.00,29.7,26.5,00.0,38.7,31.2,09.8,0000.0,0009.08,0001.60,0000.79
2021-10-29 22:36:00,,0825.5,4.99,0.00,29.6,26.9,00.0,38.7,31.2,09.8,0000.0,0008.07,0001.56,0000.79
2021-10-29 22:37:00,,0825.5,5.00,0.00,29.6,27.4,00.0,38.7,31.3,09.8,0000.0,0007.22,0001.59,0000.78
2021-10-29 22:38:00,,0825.4,5.00,0.00,29.6,27.8,00.0,38.7,31.4,09.8,0000.0,0007.77,0001.55,0000.77
2021-10-29 22:39:00,,0825.4,5.02,0.00,29.7,28.1,00.0,38.7,31.4,09.8,0000.0,0008.67,0001.59,0000.75
2021-10-29 22:40:00,,0825.4,4.99,0.00,29.7,28.4,00.0,38.7,31.5,09.9,0000.0,0009.84,0001.68,0000.75
2021-10-29 22:41:00,,0825.5,5.00,0.00,29.7,28.6,00.0,38.7,31.6,09.8,0000.0,0010.80,0001.76,0000.76
2021-10-29 22:42:00,,0825.5,5.00,0.00,29.8,28.8,00.0,38.7,31.6,09.7,0000.0,0012.44,0001.92,0000.78
2021-10-29 22:43:00,,0825.4,5.00,0.00,29.8,28.9,00.0,38.7,31.7,09.6,0000.0,0012.75,0001.98,0000.77
2021-10-29 22:44:00,,0825.4,4.99,0.00,29.9,29.1,00.0,38.7,31.8,09.5,0000.0,0012.74,0001.99,0000.77
2021-10-29 22:45:00,,0825.4,5.00,0.00,29.9,29.2,00.0,38.8,31.8,09.6,0000.0,0013.68,0002.03,0000.78
2021-10-29 22:46:00,,0825.4,5.00,0.00,30.0,29.2,00.0,38.8,31.9,09.6,0000.0,0013.54,0002.01,0000.77
2021-10-29 22:47:00,,0825.4,5.00,0.00,30.0,29.3,00.0,38.8,31.9,09.6,0000.0,0013.64,0001.95,0000.76
2021-10-29 22:48:00,,0825.4,5.01,0.00,30.0,29.1,00.0,38.8,31.9,09.6,0000.0,0013.39,0001.92,0000.76
2021-10-29 22:49:00,,0825.4,5.01,0.00,30.0,27.2,00.0,38.8,31.6,09.6,0000.0,0013.01,0001.93,0000.77
2021-10-29 22:50:00,,0825.4,5.00,0.00,29.8,25.7,00.0,38.8,31.2,09.5,0000.0,0013.24,0001.93,0000.77
2021-10-29 22:51:00,,0825.4,5.01,0.00,29.7,25.9,00.0,38.8,31.2,09.6,0000.0,0012.56,0001.88,0000.78
2021-10-29 22:52:00,,0825.4,4.99,0.00,29.7,26.4,00.0,38.7,31.2,09.5,0000.0,0011.52,0001.80,0000.79
2021-10-29 22:53:00,,0825.4,5.00,0.00,29.6,26.9,00.0,38.7,31.3,09.6,0000.0,0010.57,0001.65,0000.77
2021-10-29 22:54:00,,0825.4,5.01,0.00,29.6,27.3,00.0,38.7,31.3,09.6,0000.0,0010.31,0001.63,0000.77
2021-10-29 22:55:00,,0825.5,5.01,0.00,29.6,27.7,00.0,38.7,31.4,09.6,0000.0,0011.04,0001.65,0000.77
2021-10-29 22:56:00,,0825.4,5.00,0.00,29.7,28.0,00.0,38.7,31.5,09.6,0000.0,0010.61,0001.69,0000.78
2021-10-29 22:57:00,,0825.5,4.99,0.00,29.7,28.3,00.0,38.7,31.5,09.7,0000.0,0010.75,0001.75,0000.78
2021-10-29 22:58:00,,0825.4,5.01,0.00,29.7,28.5,00.0,38.7,31.6,09.8,0000.0,0010.80,0001.80,0000.78
2021-10-29 22:59:00,,0825.4,5.00,0.00,29.8,28.7,00.0,38.7,31.7,09.7,0000.0,0011.04,0001.82,0000.77
